Regional Weather Roundup
Issued by NWS

Home | Current Version | Previous Version | Text Only | Print | Product List | Glossary On
Versions: 1 2 3 4 5 6 7 8 9 10 11 12 13 14 15 16 17 18 19 20 21 22 23 24 25 26 27 28 29 30 31 32 33 34 35 36 37 38 39 40 41 42 43 44 45 46 47 48 49 50
000
ASUS43 KOAX 010010
RWRNE

WEATHER ROUNDUP FOR NEBRASKA
NATIONAL WEATHER SERVICE OMAHA NE
700 PM CDT THU JUN 30 2016

NOTES: SATELLITE DATA IS BEING USED TO AUGMENT CLOUD COVER ABOVE
       12000 FEET.
       "FAIR" INDICATES FEW OR NO CLOUDS BELOW 12,000 FEET WITH NO
       SIGNIFICANT WEATHER AND/OR OBSTRUCTIONS TO VISIBILITY.

  * THESE STATIONS DO NOT REPORT WEATHER SUCH AS RAIN...SNOW OR FOG.

NEZ001>004-019>022-054>056-010100-
NEBRASKA PANHANDLE

CITY           SKY/WX    TMP DP  RH WIND       PRES   REMARKS
SCOTTSBLUFF    MOSUNNY   78  52  40 E15       30.16S
6HR MIN TEMP:  75; 6HR MAX TEMP:  82;

ALLIANCE       MOSUNNY   72  51  47 NE8       30.17S
6HR MIN TEMP:  70; 6HR MAX TEMP:  79;

CHADRON        SUNNY     79  53  40 E12       30.12F
6HR MIN TEMP:  68; 6HR MAX TEMP:  79; 6HR PCP: TRACE;

KIMBALL        RAIN      65  61  87 E5        30.22R
SIDNEY         MOSUNNY   74  54  49 E15       30.18S
6HR MIN TEMP:  74; 6HR MAX TEMP:  82;

$$

NEZ057>060-069>072-079>082-010100-
SOUTHWEST NEBRASKA

CITY           SKY/WX    TMP DP  RH WIND       PRES   REMARKS
NORTH PLATTE   MOSUNNY   79  57  46 NE12G21   30.10R
6HR MIN TEMP:  78; 6HR MAX TEMP:  83;

IMPERIAL       CLOUDY    79  57  46 NE13      30.10S
6HR MIN TEMP:  79; 6HR MAX TEMP:  84;

LEXINGTON      MOSUNNY   79  60  53 NE8       30.08R
MCCOOK         SUNNY     81  58  45 E14       30.07S
6HR MIN TEMP:  80; 6HR MAX TEMP:  85;

OGALLALA       PTSUNNY   80  51  37 E10G18    30.11F
$$

NEZ005>010-023>029-035>040-094-010100-
NORTH CENTRAL NEBRASKA

CITY           SKY/WX    TMP DP  RH WIND       PRES   REMARKS
VALENTINE      MOSUNNY   78  55  44 NE18      30.12F
6HR MIN TEMP:  74; 6HR MAX TEMP:  80;

AINSWORTH      MOSUNNY   78  56  46 NE13      30.12S
BROKEN BOW     MOSUNNY   76  55  48 NE8       30.09F
6HR MIN TEMP:  76; 6HR MAX TEMP:  82;

O`NEILL        SUNNY     78  55  43 N14       30.08S
ORD            CLOUDY    77  57  50 N9        30.06F
6HR MIN TEMP:  77; 6HR MAX TEMP:  82;

THEDFORD       CLOUDY    77  58  50 NE8       30.13F
$$

NEZ041-046>049-061>064-073>077-083>087-010100-
SOUTH CENTRAL NEBRASKA

CITY           SKY/WX    TMP DP  RH WIND       PRES   REMARKS
GRAND ISLAND   SUNNY     83  55  38 NE16      30.03F
6HR MIN TEMP:  83; 6HR MAX TEMP:  88;

AURORA         SUNNY     80  59  48 N10G16    30.03S
HASTINGS       SUNNY     82  60  47 NE14      30.02F
6HR MIN TEMP:  81; 6HR MAX TEMP:  86;

HEBRON         MOSUNNY   84  64  49 N15G22    29.98F
HOLDREGE       MOSUNNY   79  58  48 NE10G16   30.05F
KEARNEY *      SUNNY     82  55  39 N15       30.06S
YORK           SUNNY     82  59  44 NE12      30.01F
$$

NEZ011>018-030>034-042>045-010100-
NORTHEAST NEBRASKA

CITY           SKY/WX    TMP DP  RH WIND       PRES   REMARKS
NORFOLK        SUNNY     81  56  42 N20       30.03S
6HR MIN TEMP:  80; 6HR MAX TEMP:  86;

ALBION         SUNNY     81  56  42 N9        30.04F
BLAIR          SUNNY     82  64  54 N12       29.98F
FREMONT        SUNNY     82  62  50 N6        30.00S
TEKAMAH        MOSUNNY   84  59  42 N15       29.98S
6HR MIN TEMP:  77; 6HR MAX TEMP:  86;

WAYNE          SUNNY     79  61  53 N13       30.03S
$$

NEZ050>053-065>068-078-088>093-010100-
SOUTHEAST NEBRASKA

CITY           SKY/WX    TMP DP  RH WIND       PRES   REMARKS
LINCOLN        SUNNY     85  62  46 NE15      29.98F
6HR MIN TEMP:  85; 6HR MAX TEMP:  91;

OMAHA EPPLEY   MOSUNNY   83  63  50 N16       29.96S
6HR MIN TEMP:  82; 6HR MAX TEMP:  89;

BEATRICE       CLOUDY    85  64  50 N13       29.97R
FALLS CITY     CLOUDY    81  64  56 N8        29.94R
6HR MIN TEMP:  81; 6HR MAX TEMP:  89;

NEBRASKA CITY  SUNNY     81  63  52 N9        29.96S
PLATTSMOUTH    SUNNY     83  62  49 N9        29.97S
$$

NEZ044-045-051>053-067-010100-
OMAHA AREA

CITY           SKY/WX    TMP DP  RH WIND       PRES   REMARKS
OMAHA EPPLEY   MOSUNNY   83  63  50 N16       29.96S
6HR MIN TEMP:  82; 6HR MAX TEMP:  89;

BLAIR          SUNNY     82  64  54 N12       29.98F
FREMONT        SUNNY     82  62  50 N6        30.00S
MILLARD        SUNNY     81  63  54 N8        29.97S
OFFUTT AFB     SUNNY     83  62  49 N13G20    29.96S
PLATTSMOUTH    SUNNY     83  62  49 N9        29.97S
WAHOO          FAIR      82  63  52 N14       29.99S
$$




USA.gov is the U.S. government's official web portal to all federal, state and local government web resources and services.